Drummond Island, MI

6:05 PM EDT on October 01, 2016 (GMT -0400)
Drummond Island

Weather History for KDRM - March, 2013

Change the Weather History Date:

Wednesday, March 27, 2013

  Actual Average (KCIU) Record (KCIU)
Temperature  
Mean Temperature 34 °F -  
Max Temperature 39 °F 41 °F 53 °F (1981)
Min Temperature 28 °F 20 °F 0 °F (2015)
Degree Days  
Heating Degree Days 32    
Moisture  
Dew Point 27 °F    
Average Humidity 78    
Maximum Humidity 92    
Minimum Humidity 58    
Precipitation  
Precipitation 0.00 in - - ()
Sea Level Pressure  
Sea Level Pressure 30.07 in    
Wind  
Wind Speed 5 mph (WNW)    
Max Wind Speed 12 mph    
Max Gust Speed 20 mph    
Visibility 10 miles    
Events      
Averages and records for this station are not official NWS values.
T = Trace of Precipitation, MM = Missing Value Source: NWS Daily Summary

Daily Weather History Graph

Daily Weather History Graph

Search for Another Location

Airport or City:

Trip Planner

Search our weather history database for the weather conditions in past years. The results will help you decide how hot, cold, wet, or windy it might be!

Date:

Astronomy

Mar. 27, 2013 Rise Set
Actual Time 7:24 AM EDT 7:57 PM EDT
Civil Twilight 6:54 AM EDT 8:27 PM EDT
Nautical Twilight 6:18 AM EDT 9:02 PM EDT
Astronomical Twilight 5:41 AM EDT 9:40 PM EDT
Moon 8:44 PM EDT (3/27) 7:11 AM EDT (3/27)
Length of Visible Light 13h 33m
Length of Day
12h 33m
Full, 100% of the Moon is Illuminated
Mar 27
Full
Apr 3
Last Quarter
Apr 10
New
Apr 18
First Quarter
Apr 25
Full

Hourly Weather History & Observations

Time (EDT) Temp. Windchill Dew Point Humidity Pressure Visibility Wind Dir Wind Speed Gust Speed Precip Events Conditions
12:16 AM 32.9 °F - 29.3 °F 87% 30.03 in 10.0 mi Calm Calm - N/A   Overcast
12:37 AM 32.9 °F 28.5 °F 29.3 °F 87% 30.04 in 10.0 mi West 4.6 mph - N/A   Overcast
12:57 AM 32.9 °F 29.8 °F 29.7 °F 88% 30.04 in 10.0 mi West 3.5 mph - N/A   Overcast
1:16 AM 32.9 °F 28.5 °F 29.8 °F 88% 30.04 in 10.0 mi West 4.6 mph - N/A   Overcast
1:37 AM 32.7 °F 27.3 °F 30.0 °F 90% 30.03 in 10.0 mi WNW 5.8 mph - N/A   Overcast
1:56 AM 32.7 °F 26.4 °F 30.0 °F 90% 30.03 in 10.0 mi WNW 6.9 mph - N/A   Overcast
2:17 AM 32.5 °F 28.1 °F 30.2 °F 91% 30.03 in 10.0 mi WNW 4.6 mph - N/A   Overcast
2:36 AM 32.5 °F 27.1 °F 30.2 °F 91% 30.03 in 10.0 mi WNW 5.8 mph - N/A   Overcast
2:57 AM 32.7 °F 28.3 °F 30.2 °F 90% 30.03 in 10.0 mi WNW 4.6 mph - N/A   Overcast
3:17 AM 32.5 °F 28.1 °F 29.8 °F 90% 30.03 in 10.0 mi West 4.6 mph - N/A   Overcast
3:37 AM 32.4 °F 26.0 °F 29.8 °F 90% 30.03 in 10.0 mi WNW 6.9 mph - N/A   Overcast
3:57 AM 32.0 °F 25.6 °F 29.3 °F 90% 30.03 in 10.0 mi WNW 6.9 mph - N/A   Overcast
4:16 AM 32.0 °F 28.7 °F 29.1 °F 89% 30.03 in 10.0 mi WNW 3.5 mph - N/A   Mostly Cloudy
4:37 AM 31.3 °F 27.9 °F 28.6 °F 90% 30.03 in 10.0 mi NW 3.5 mph - N/A   Scattered Clouds
4:57 AM 30.7 °F 27.3 °F 28.4 °F 91% 30.03 in 10.0 mi WNW 3.5 mph - N/A   Clear
5:16 AM 30.2 °F 23.4 °F 27.9 °F 91% 30.03 in 10.0 mi WNW 6.9 mph - N/A   Clear
5:37 AM 30.2 °F 23.4 °F 27.7 °F 90% 30.03 in 10.0 mi WNW 6.9 mph - N/A   Mostly Cloudy
5:57 AM 29.8 °F 24.9 °F 27.5 °F 91% 30.04 in 10.0 mi WNW 4.6 mph - N/A   Scattered Clouds
6:16 AM 29.3 °F 24.3 °F 27.3 °F 92% 30.04 in 10.0 mi WNW 4.6 mph - N/A   Scattered Clouds
6:37 AM 29.1 °F 23.0 °F 27.0 °F 92% 30.04 in 10.0 mi WNW 5.8 mph - N/A   Mostly Cloudy
6:57 AM 29.3 °F 23.2 °F 26.8 °F 90% 30.05 in 10.0 mi WNW 5.8 mph - N/A   Overcast
7:16 AM 29.3 °F 24.3 °F 26.6 °F 90% 30.05 in 10.0 mi WNW 4.6 mph - N/A   Mostly Cloudy
7:37 AM 28.9 °F 23.9 °F 26.4 °F 90% 30.05 in 10.0 mi WNW 4.6 mph - N/A   Scattered Clouds
7:57 AM 29.3 °F 23.2 °F 26.1 °F 88% 30.06 in 10.0 mi WNW 5.8 mph - N/A   Clear
8:16 AM 30.0 °F 26.5 °F 25.7 °F 84% 30.06 in 10.0 mi WNW 3.5 mph - N/A   Scattered Clouds
8:37 AM 31.1 °F 26.4 °F 25.5 °F 80% 30.07 in 10.0 mi WNW 4.6 mph - N/A   Mostly Cloudy
8:56 AM 31.6 °F 28.3 °F 25.5 °F 78% 30.07 in 10.0 mi WNW 3.5 mph - N/A   Scattered Clouds
9:17 AM 31.5 °F - 25.3 °F 78% 30.08 in 10.0 mi Calm Calm - N/A   Scattered Clouds
9:36 AM 32.9 °F 27.5 °F 25.0 °F 73% 30.07 in 10.0 mi NW 5.8 mph - N/A   Scattered Clouds
9:57 AM 33.1 °F 24.9 °F 24.6 °F 71% 30.07 in 10.0 mi NNW 10.4 mph - N/A   Clear
10:17 AM 34.0 °F 28.0 °F 24.6 °F 69% 30.07 in 10.0 mi NNW 6.9 mph - N/A   Scattered Clouds
10:36 AM 34.7 °F 29.6 °F 24.6 °F 67% 30.07 in 10.0 mi NW 5.8 mph - N/A   Scattered Clouds
10:57 AM 34.9 °F 28.3 °F 24.6 °F 66% 30.08 in 10.0 mi NNW 8.1 mph - N/A   Scattered Clouds
11:17 AM 34.7 °F 26.4 °F 25.0 °F 68% 30.08 in 10.0 mi North 11.5 mph - N/A   Scattered Clouds
11:36 AM 34.7 °F 28.1 °F 24.8 °F 67% 30.08 in 10.0 mi North 8.1 mph - N/A   Clear
11:57 AM 35.1 °F 30.1 °F 24.8 °F 66% 30.09 in 10.0 mi North 5.8 mph - N/A   Clear
12:17 PM 35.6 °F 29.9 °F 24.6 °F 64% 30.08 in 10.0 mi North 6.9 mph - N/A   Clear
12:36 PM 35.8 °F 30.9 °F 24.6 °F 64% 30.08 in 10.0 mi North 5.8 mph - N/A   Mostly Cloudy
12:57 PM 36.0 °F 32.1 °F 25.0 °F 64% 30.08 in 10.0 mi North 4.6 mph - N/A   Mostly Cloudy
1:17 PM 36.9 °F 32.2 °F 25.2 °F 63% 30.08 in 10.0 mi North 5.8 mph - N/A   Scattered Clouds
1:36 PM 39.0 °F 35.7 °F 25.3 °F 58% 30.08 in 10.0 mi West 4.6 mph - N/A   Scattered Clouds
1:57 PM 39.4 °F 33.2 °F 25.5 °F 58% 30.08 in 10.0 mi WNW 9.2 mph 16.1 mph N/A   Clear
2:16 PM 38.8 °F 32.6 °F 26.4 °F 61% 30.08 in 10.0 mi West 9.2 mph 16.1 mph N/A   Clear
2:37 PM 38.8 °F 35.4 °F 26.6 °F 61% 30.08 in 10.0 mi West 4.6 mph - N/A   Scattered Clouds
2:57 PM 38.5 °F 32.1 °F 26.6 °F 62% 30.08 in 10.0 mi WNW 9.2 mph 19.6 mph N/A   Scattered Clouds
3:16 PM 38.8 °F 33.8 °F 26.6 °F 61% 30.08 in 10.0 mi WNW 6.9 mph 18.4 mph N/A   Scattered Clouds
3:37 PM 39.0 °F 32.8 °F 27.0 °F 62% 30.08 in 10.0 mi WNW 9.2 mph - N/A   Scattered Clouds
3:56 PM 39.2 °F 33.6 °F 26.8 °F 61% 30.07 in 10.0 mi WNW 8.1 mph - N/A   Scattered Clouds
4:17 PM 39.4 °F 33.2 °F 27.1 °F 62% 30.07 in 10.0 mi WNW 9.2 mph - N/A   Clear
4:37 PM 39.7 °F 33.7 °F 27.7 °F 62% 30.07 in 10.0 mi WNW 9.2 mph - N/A   Scattered Clouds
4:56 PM 38.7 °F 32.9 °F 27.5 °F 64% 30.07 in 10.0 mi WNW 8.1 mph 17.3 mph N/A   Scattered Clouds
5:17 PM 36.9 °F 29.6 °F 27.0 °F 67% 30.08 in 10.0 mi WNW 10.4 mph 18.4 mph N/A   Mostly Cloudy
5:37 PM 36.9 °F 30.1 °F 27.3 °F 68% 30.08 in 10.0 mi WNW 9.2 mph 17.3 mph N/A   Mostly Cloudy
5:56 PM 36.0 °F 29.0 °F 27.3 °F 71% 30.08 in 10.0 mi WNW 9.2 mph 18.4 mph N/A   Scattered Clouds
6:17 PM 35.6 °F 28.0 °F 27.5 °F 72% 30.09 in 10.0 mi WNW 10.4 mph 19.6 mph N/A   Mostly Cloudy
6:36 PM 35.6 °F 29.9 °F 27.3 °F 72% 30.09 in 10.0 mi WNW 6.9 mph 17.3 mph N/A   Overcast
6:57 PM 35.6 °F 28.6 °F 27.5 °F 72% 30.10 in 10.0 mi WNW 9.2 mph 17.3 mph N/A   Overcast
7:16 PM 35.1 °F 27.4 °F 27.3 °F 73% 30.10 in 10.0 mi WNW 10.4 mph - N/A   Overcast
7:37 PM 34.7 °F 26.9 °F 27.5 °F 75% 30.11 in 10.0 mi WNW 10.4 mph - N/A   Overcast
7:57 PM 34.2 °F 27.5 °F 28.0 °F 78% 30.11 in 10.0 mi WNW 8.1 mph - N/A   Overcast
8:16 PM 34.2 °F 29.0 °F 28.0 °F 78% 30.11 in 10.0 mi WNW 5.8 mph - N/A   Overcast
8:37 PM 34.2 °F 27.5 °F 28.4 °F 79% 30.12 in 10.0 mi WNW 8.1 mph - N/A   Overcast
8:56 PM 34.2 °F 27.5 °F 28.4 °F 79% 30.12 in 10.0 mi NW 8.1 mph - N/A   Overcast
9:17 PM 34.0 °F 28.0 °F 28.8 °F 81% 30.13 in 10.0 mi WNW 6.9 mph - N/A   Overcast
9:37 PM 33.8 °F 27.0 °F 29.1 °F 83% 30.13 in 10.0 mi WNW 8.1 mph - N/A   Overcast
9:56 PM 33.4 °F 27.3 °F 29.3 °F 85% 30.13 in 10.0 mi WNW 6.9 mph - N/A   Overcast
10:17 PM 33.1 °F 26.9 °F 29.8 °F 88% 30.14 in 10.0 mi WNW 6.9 mph - N/A   Overcast
10:37 PM 33.1 °F 26.9 °F 29.8 °F 88% 30.14 in 10.0 mi WNW 6.9 mph - N/A   Overcast
10:56 PM 33.1 °F 28.7 °F 29.8 °F 88% 30.14 in 10.0 mi WNW 4.6 mph - N/A   Overcast
11:17 PM 32.9 °F 26.7 °F 29.8 °F 88% 30.14 in 10.0 mi WNW 6.9 mph - N/A   Overcast
11:37 PM 32.7 °F 27.3 °F 30.0 °F 90% 30.14 in 10.0 mi WNW 5.8 mph - N/A   Overcast
11:56 PM 32.5 °F 29.3 °F 30.0 °F 90% 30.14 in 10.0 mi WNW 3.5 mph - N/A   Overcast